SENTINEL-3A

Last updated on Fri Oct 04 2024 00:02:25 GMT+0000 (Coordinated Universal Time)

1 41335U 16011A 24277.51508304 .00000946 00000+0 40862-3 0 9994 2 41335 98.6294 342.7534 0001053 108.6883 251.4412 14.26743359449412
UTC large
Height (km)
Speed (km/s)
/
Latitude / Longitude
Inclination (degrees)
Orbital Period (minutes)
Azimuth
Elevation
Range (km)
Doppler Factor

Next 0 passes for location: London (51.5072 / 0.1276)

Sorry there are no passes over London.